Regional Weather Roundup
Issued by NWS

Home | Current Version | Previous Version | Text Only | Print | Product List | Glossary Off
Versions: 1 2 3 4 5 6 7 8 9 10 11 12 13 14 15 16 17 18 19 20 21 22 23 24 25 26 27 28 29 30 31 32 33 34 35 36 37 38 39 40 41 42 43 44 45 46 47 48 49 50

000
ASUS43 KBIS 051710
RWRND

NORTH DAKOTA REGIONAL WEATHER ROUNDUP
NATIONAL WEATHER SERVICE BISMARCK ND
1100 AM CST MON DEC 05 2016

NOTE: "FAIR" INDICATES FEW OR NO CLOUDS BELOW 12,000 FEET WITH NO
SIGNIFICANT WEATHER AND/OR OBSTRUCTIONS TO VISIBILITY.


NDZ001>003-009>011-017-051800-
NORTHWEST NORTH DAKOTA

CITY           SKY/WX    TMP DP  RH WIND       PRES   REMARKS
WILLISTON      LGT SNOW  23  18  81 NW25G32   29.65R WCI   7
MINOT          CLOUDY    24  20  84 CALM      29.55R
MINOT AFB      CLOUDY    23  21  93 W7        29.55R WCI  14
$$

NDZ018>021-031>035-040>046-051800-
SOUTHWEST NORTH DAKOTA

CITY           SKY/WX    TMP DP  RH WIND       PRES   REMARKS
BISMARCK       SNOW      32  31  96 NW10      29.58S VSB 1/2
DICKINSON      CLOUDY    22  18  85 NW31G38   29.58R FOG     WCI   4
GARRISON         N/A     31  28  89 W18       29.57R WCI  19
HETTINGER ARPT MIX PCPN  24  19  81 NW29G38   29.63R WCI   7
$$

NDZ004>008-012>016-024-026-027-054-051800-
NORTHEAST NORTH DAKOTA

CITY           SKY/WX    TMP DP  RH WIND       PRES   REMARKS
GRAND FORKS    CLOUDY    28  26  92 E9        29.68S FOG     WCI  19
GRND FRKS AFB  CLOUDY    27  27 100 E10       29.67F FOG     WCI  17
DEVILS LAKE    CLOUDY    24  23  96 SE14      29.62R FOG     WCI  12
$$

NDZ022-023-025-028>030-036>039-047>053-051800-
SOUTHEAST NORTH DAKOTA

CITY           SKY/WX    TMP DP  RH WIND       PRES   REMARKS
FARGO          MOSUNNY   30  26  85 E7        29.63F
JAMESTOWN      CLOUDY    27  25  92 E7        29.57S WCI  19
$$





USA.gov is the U.S. government's official web portal to all federal, state and local government web resources and services.